STARLINK-3333 (50805 NORAD) Tracking and Keplerian Element Data

This shows tracking and keplerian element data for the satellite.

Feedback or suggestion? Click here.




ElementValue
Catalog50805
NameSTARLINK-3333
Epoch Orbit130
Epoch Day140.58334491
Epoch Year2022
RAAN275.0584
Inclination53.2125
Eccentricity0.0002032
Argument of Perigee45.886
Mean Anonmoly55.5913
Mean Motion15.08833955
Decay Rate-0.00019423
L11 50805U 22001C 22140.58334491 -.00019423 00000+0 -12057-2 0 9996
L22 50805 53.2125 275.0584 0002032 45.8860 55.5913 15.08833955 1306

Live tracking and technical data element details for STARLINK-3333 (NORAD 50805). STARLINK-3333 can be tracked NOW for your location showing map with azimuth and elevation plus other details from your city location.

Track the satellite on the map from your city or location and see movement details for azimuth, elevation, latitude, longitude, range, height, and movement on the map or in text.







IsCatalogInMostPopularTable: catalog: 50805, numindb: 18
Update: records affected: 1



GetName: 50805 STARLINK-3333

Hit Count: updated at: Mon, 23 May 2022 19:47:10 GMT